Regional Weather Roundup
Issued by NWS Grand Forks, ND

Home | Current Version | Previous Version | Text Only | Print | Product List | Glossary Off
Versions: 1 2 3 4 5 6 7 8 9 10 11 12 13 14 15 16 17 18 19 20 21 22 23 24 25 26 27 28 29 30 31 32 33 34 35 36 37 38 39 40 41 42 43 44 45 46 47 48 49 50

000
ASUS43 KFGF 210910
RWRFGF
PRAIRIE TO PINES  WEATHER ROUNDUP
NATIONAL WEATHER SERVICE EASTERN NORTH DAKOTA/GRAND FORKS ND
300 AM CST TUE FEB 21 2017

 **SATELLITE DATA USED TO AUGMENT SKY COVER AT AUTOMATED STATIONS**
 *****  WEATHER ACROSS EASTERN NORTH DAKOTA  *****

CITY           SKY/WX    TMP DP  RH WIND       PRES   REMARKS
GRAND FORKS    CLOUDY    30  26  85 SW5       29.74R
GRAND FRKS AFB CLOUDY    32  31  99 SW6       29.73F
DEVILS LAKE    CLOUDY    32  31  96 E5        29.70F
FARGO          FAIR      33  30  88 S5        29.77S
WAHPETON ARPT  FAIR      32  30  93 S5        29.81R
$$

 ***** WEATHER ACROSS CENTRAL AND WESTERN NORTH DAKOTA  *****

CITY           SKY/WX    TMP DP  RH WIND       PRES   REMARKS
BISMARCK       FAIR      37  31  78 E6        29.69F
MINOT          CLOUDY    36  31  82 N7        29.66S
JAMESTOWN      MOCLDY    31  30  96 S6        29.72F
MINOT AFB      FAIR      35  31  87 SE5       29.65F
GARRISON         N/A     34  29  82 E8        29.65S
WILLISTON      FAIR      36  29  75 SW3       29.64R
DICKINSON      FAIR      40  27  59 SW15      29.63S
HETTINGER      FAIR      39  28  64 NW9       29.71R
$$

 *****  OTHER AIRPORT OBSERVATIONS IN OUR AREA  *****

CITY           SKY/WX    TMP DP  RH WIND       PRES   REMARKS
WALHALLA       NOT AVBL
GRAFTON AIRPOR FOG       27  27 100 CALM      29.76R VSB 1/4
VALLEY CITY AR PTSUNNY   32  32 100 S6        29.77S
CANDO          NOT AVBL
CAVALIER APRT    N/A     28  28 100 S3        29.73S
GWINNER        FAIR      36  34  93 SW9       29.78S
SHEYENNE NWR     N/A     31  30  96 W2        29.95S
ROLLA          PTSUNNY   32  32 100 CALM      29.70R
 ***** THE ABOVE OBSERVATIONS ARE NON NWS ARE NOT QUALITY
       CONTROLLED AND MAY MIS-REPORT RAIN FOR SNOW...
$$

  *****  WEATHER ACROSS NORTHERN MINNESOTA  *****

CITY           SKY/WX    TMP DP  RH WIND       PRES   REMARKS
FLAG ISLAND    FAIR      32  30  93 W8        29.69S WCI  25
WARROAD        CLOUDY    32  28  86 SW7       29.72S FOG
ROSEAU         HAZE      32  27  80 W6        29.73R VSB 1
HALLOCK        FOG       34  32  93 CALM      29.73F VSB 1
THF RVR FALLS  FOG       30  29  96 SW5       29.75S VSB 1
BAUDETTE       CLOUDY    33  31  92 W8        29.71R
WASKISH        CLOUDY    34  32  93 SW9       29.73S FOG
CROOKSTON      FAIR      32  30  93 S5        29.76S FOG
GREENBUSH NDAW   N/A     30  30 100 W3          N/A
$$
  *****  WEATHER ACROSS CENTRAL AND WEST MINNESOTA  *****

CITY           SKY/WX    TMP DP  RH WIND       PRES   REMARKS
FOSSTON        FAIR      30  28  93 S7        29.76R FOG     WCI  23
BEMIDJI        CLOUDY    33  32  99 SW5       29.75S FOG
PARK RAPIDS    FOG       32  30  92 SW5       29.78R VSB 1/4
ELBOW LAKE     FAIR      32  32 100 E7        29.81S
WADENA         FOG       30  30 100 CALM      29.80R VSB 1/4
DETROIT LAKES    N/A     32  32 100 S5        29.79F FOG
MOORHEAD       FAIR      30  30 100 SE5       29.79S FOG
FERGUS FALLS   FAIR      32  32 100 SE6       29.83F FOG
MORRIS MN      FAIR      30  30 100 S5        29.81S FOG
STAPLES        FOG       32  32 100 CALM      29.81R VSB 1/4
$$
  *****  WEATHER ELSEWHERE ACROSS MINNESOTA  *****

CITY           SKY/WX    TMP DP  RH WIND       PRES   REMARKS
DULUTH         CLOUDY    36  34  92 W14       29.75R
INTRNTL FALLS  CLOUDY    34  31  88 W6        29.70R
ELY            CLOUDY    34  32  93 W20G29    29.70S WCI  22
CLOQUET        CLOUDY    36  34  93 W8        29.77R
WHEATON        FAIR      36  30  80 S7        29.83R
BRAINERD       CLOUDY    34  33  96 SW8       29.81S FOG
HIBBING        CLOUDY    33  33 100 VRB7      29.74S
ALEXANDRIA     FAIR      32  31  96 SW5       29.82S FOG
SAINT CLOUD    FAIR      32  32 100 S3        29.84F FOG
MINNEAPOLIS    FAIR      37  34  89 S5        29.88R
$$

  *****  WEATHER ACROSS SOUTH DAKOTA  *****

CITY           SKY/WX    TMP DP  RH WIND       PRES   REMARKS
SIOUX FALLS    FAIR      30  30 100 CALM      29.89S FOG
BROOKINGS      FAIR      33  32  96 S9        29.85F
WATERTOWN      FAIR      32  30  92 S7        29.82F
HURON          FAIR      35  33  92 S9        29.81F
SISSETON         N/A     36  31  82 S7        29.79F
ABERDEEN       FAIR      35  32  88 S10       29.77F
MITCHELL       FAIR      34  31  88 S9        29.85F
PIERRE         FAIR      35  27  72 CALM      29.75R
MOBRIDGE       FAIR      39  30  70 SE12      29.68S
RAPID CITY     FAIR      54  28  36 S13       29.79R
$$

  *****  SOME WEATHER IN NEARBY STATES *****

CITY           SKY/WX    TMP DP  RH WIND       PRES   REMARKS
GLASGOW MT     FAIR      34  32  92 S9        29.64R
GREAT FALLS MT FAIR      40  29  64 SW15      29.65R
CHEYENNE WY    FAIR      50  19  29 SW24G38   29.98S
SCOTTSBLUFF NE FAIR      36  22  56 N3        29.93S
OMAHA NE       FAIR      35  30  82 CALM      29.97R
DES MOINES IA  FAIR      46  42  86 N8        29.94F
DAVENPORT IA   MOCLDY    56  55  97 SW8       29.90S
CHICAGO IL     LGT RAIN  57  48  72 SW8       29.90F
EAU CLAIRE WI  CLOUDY    41  39  93 W14       29.86R
LA CROSSE WI   MOCLDY    44  40  85 W9        29.88R
$$

  *****  SOME NATIONAL WEATHER *****

CITY           SKY/WX    TMP DP  RH WIND       PRES   REMARKS
LA GUARDIA NY  FAIR      37  15  40 NE7       30.36S
RALEIGH NC     FAIR      50  35  56 E7        30.27R
ATLANTA GA     MOCLDY    58  46  64 SE8       30.11S
NEW ORLEANS LA CLOUDY    61  60  97 CALM      29.96F
OKLAHOMA CITY  FAIR      50  45  83 N12       29.94S
ALBUQUERQUE NM FAIR      46  31  55 N8        30.33S
SALT LAKE CITY FAIR      52  39  61 S26G35    30.02S
LOS ANGELES CA MOCLDY    59  56  89 CALM      30.32R
BOISE ID       CLOUDY    48  41  76 SE20G28   29.77F
SEATTLE WA     CLOUDY    42  40  92 N6        29.70F
$$

*** WEATHER ACROSS MANITOBA...SASKATCHEWAN AND ONTARIO ***
                ***ONTARIO***

CITY           SKY/WX    TMP DP  RH WIND       PRES   REMARKS
GERALDTON      LGT RAIN  36  36 100 S15G23    29.47F
THUNDER BAY    LGT RAIN  37  37 100 W14       29.53R
SIOUX LOOKOUT  CLOUDY    34  32  93 W12G22    29.54R
TORONTO        CLOUDY    34  19  55 E7        30.15F
BIG TROUT LK   LGT RAIN  34  34 100 S7        29.22F
PICKLE LAKE    NOT AVBL
DRYDEN         CLOUDY    32  32 100 W20G29    29.59R WCI  20
KENORA         LGT RAIN  32  30  93 W8        29.65R FOG     WCI  25
$$
                *** MANITOBA***

CITY           SKY/WX    TMP DP  RH WIND       PRES   REMARKS
BRANDON        CLOUDY    34  30  86 W8        29.68F
DAUPHIN        CLOUDY    36  30  80 W8        29.67R
ISLAND LAKE    FLURRIES  30  27  86 W21G26    29.43R WCI  17
PILOT MOUND      N/A     30  28  93 NW3         N/A
THE PAS        CLOUDY    32  27  80 NW15G22   29.60R WCI  22
THOMPSON       CLOUDY    21  18  86 NW10      29.49S WCI  10
WINNIPEG       CLOUDY    32  30  93 W9        29.71R WCI  24
LYNN LAKE      CLOUDY    18  16  93 NW6       29.53S WCI   9
CHURCHILL      LGT SNOW  10   9  92 E21G28    29.52F BLWGSNOWWCI  -9
GILLAM         LGT SNOW  18  16  93 NW10      29.39F VSB 5/8 WCI   6
$$
                ***SASKATCHEWAN***

CITY           SKY/WX    TMP DP  RH WIND       PRES   REMARKS
ESTEVAN        CLOUDY    34  32  93 NE8       29.63F
KINDERSLEY     PTCLDY    28  27  93 E6        29.61S WCI  22
LLOYDMINSTER   CLOUDY    30  28  93 W3        29.65R
PRINCE ALBERT  CLOUDY    32  28  86 NW6       29.65R
REGINA         CLOUDY    32  30  93 VRB2      29.62S
YORKTON        CLOUDY    32  30  93 NW2       29.65S
N. BATTLEFORD  CLOUDY    32  27  80 NW3       29.68R
LA RONGE       CLOUDY    28  25  86 W3        29.63R
SASKATOON      CLOUDY    32  28  86 NW6       29.66S
SWIFT CURRENT  CLOUDY    32  30  93 VRB2      29.57S
$$
NOTE: THESE ARE AUTOMATED STATIONS WITH LIMITED QUALITY CONTROL
      "FAIR" INDICATES FEW OR NO CLOUDS BELOW 12,000 FEET WITH NO
      SIGNIFICANT WEATHER AND/OR OBSTRUCTIONS TO VISIBILITY.
      SKY/WX - SKY CONDITION AND SIGNIFICANT WEATHER.
      TMP - AIR TEMPERATURE.    DP   - DEWPOINT TEMPERATURE.
      RH  - RELATIVE HUMIDITY.  PRES - PRESSURE.
      HX  - HEAT INDEX.         WCI  - WIND CHILL INDEX.
$




USA.gov is the U.S. government's official web portal to all federal, state and local government web resources and services.